Regional Weather Roundup
Issued by NWS

Home | Current Version | Previous Version | Graphics & Text | Print | Product List | Glossary On
Versions: 1 2 3 4 5 6 7 8 9 10 11 12 13 14 15 16 17 18 19 20 21 22 23 24 25 26 27 28 29 30 31 32 33 34 35 36 37 38 39 40 41 42 43 44 45 46 47 48 49 50
000
ASUS43 KLSX 222359
RWRMO

WEATHER SUMMARY FOR MISSOURI
NATIONAL WEATHER SERVICE SPRINGFIELD MO
700 PM CDT TUE JUL 22 2014

NOTE: "FAIR" INDICATES FEW OR NO CLOUDS BELOW 12,000 FEET WITH NO
       SIGNIFICANT WEATHER AND/OR OBSTRUCTIONS TO VISIBILITY.
       CURRENT SKY AND/OR WEATHER CONDITIONS ARE NOT AVAILABLE FOR
       CHILLICOTHE AND FARMINGTON.

MOZ001>031-035>038-043-044-053-054-230100-
...NORTHERN AND WESTERN MISSOURI...

CITY           SKY/WX    TMP DP  RH WIND       PRES   REMARKS
KANSAS CTY INT MOSUNNY   95  78  58 NW5       30.01S HX 111
6HR MIN TEMP:  90; 6HR MAX TEMP:  96;

KANSAS C DTWN  SUNNY     97  73  45 W6        29.98S HX 107
6HR MIN TEMP:  94; 6HR MAX TEMP:  99;

LEE`S SUMMIT   MOSUNNY   95  77  55 W5        30.01S HX 109
6HR MIN TEMP:  90; 6HR MAX TEMP:  95;

ST JOSEPH      MOSUNNY   92  81  70 N12       30.01R HX 112
6HR MIN TEMP:  90; 6HR MAX TEMP:  95;

CHILLICOTHE      N/A     94  79  61 NW5       30.01R HX 111
6HR MIN TEMP:  90; 6HR MAX TEMP:  96;

KIRKSVILLE     PTSUNNY   91  80  70 NW5       30.02R HX 109
6HR MIN TEMP:  87; 6HR MAX TEMP:  93;


$$
MOZ066>068-077>081-088>096-101>105-230100-
...SOUTHWEST MISSOURI...

CITY           SKY/WX    TMP DP  RH WIND       PRES   REMARKS
SPRINGFIELD    MOSUNNY   90  76  63 SW7       30.04F HX 101
6HR MIN TEMP:  87; 6HR MAX TEMP:  93;

JOPLIN         MOSUNNY   93  73  52 SW8       30.03F HX 102
6HR MIN TEMP:  91; 6HR MAX TEMP:  97;


$$
MOZ032>034-039>042-045>050-055>058-069>072-230100-
...CENTRAL MISSOURI...

CITY           SKY/WX    TMP DP  RH WIND       PRES   REMARKS
COLUMBIA       MOSUNNY   92  76  59 W7        30.01R HX 104
6HR MIN TEMP:  90; 6HR MAX TEMP:  94;

JEFFERSON CITY MOSUNNY   93  77  59 SW6       29.98R HX 107
6HR MIN TEMP:  88; 6HR MAX TEMP:  93;

ROLLA          SUNNY     90  72  55 SW6       30.02R HX  97
6HR MIN TEMP:  87; 6HR MAX TEMP:  93;

SEDALIA        MOSUNNY   91  78  65 W6        30.01R HAZE    HX 106
6HR MIN TEMP:  90; 6HR MAX TEMP:  94;

OSAGE BEACH    MOSUNNY   91  75  59 SW5       30.00S HX 102

$$
MOZ051-052-059>065-230100-
...EAST CENTRAL MISSOURI...

CITY           SKY/WX    TMP DP  RH WIND       PRES   REMARKS
ST LOUIS INTL  PTSUNNY   91  72  53 S7        30.01S HX  98
6HR MIN TEMP:  90; 6HR MAX TEMP:  93;

SPIRIT OF STL  PTSUNNY   87  73  62 SE5       29.99S HX  94
6HR MIN TEMP:  87; 6HR MAX TEMP:  90;

ST CHARLES     PTSUNNY   87  74  64 S6        29.98F HX  95
6HR MIN TEMP:  85; 6HR MAX TEMP:  91;


$$
MOZ072>076-082>087-097>100-106>115-230100-
...SOUTH CENTRAL AND SOUTHEAST MISSOURI...

CITY           SKY/WX    TMP DP  RH WIND       PRES   REMARKS
CAPE GIRARDEAU MOSUNNY   85  70  60 SW6       30.03R
6HR MIN TEMP:  85; 6HR MAX TEMP:  89;

FARMINGTON     PTSUNNY   82  70  65 S7        30.07S
6HR MIN TEMP:  82; 6HR MAX TEMP:  88;

POPLAR BLUFF   MOSUNNY   84  68  58 SW5       30.03R
6HR MIN TEMP:  84; 6HR MAX TEMP:  88;

WEST PLAINS    MOSUNNY   85  71  63 S3        30.08R HX  90
6HR MIN TEMP:  83; 6HR MAX TEMP:  88;


$$


USA.gov is the U.S. government's official web portal to all federal, state and local government web resources and services.